VOZ203 YSSY-YBBN

Flight info

Callsign VOZ203
Flight time 1h 10m
Altitude 35000
Route KEVIN7/16L OLSEM Y193 BANDA H252 BN
Aircraft B737/M-SDE2E3FGHIRWXY/LB1

Departure

Time 2026-04-23 05:27
Airport Sydney Kingsford Smith International Airport (YSSY)

Arrival

Time 2026-04-23 06:37
Airport Brisbane International Airport (YBBN)
Time Latitude Longitude Altitude Speed Heading
2026-04-23 05:00 -33.93577 151.17903 28 ft 0 kts 101°
2026-04-23 05:12 -33.93577 151.17902 28 ft 1 kts 101°
2026-04-23 05:13 -33.93574 151.17883 28 ft 2 kts 101°
2026-04-23 05:13 -33.93572 151.17866 28 ft 2 kts 101°
2026-04-23 05:13 -33.93569 151.17848 28 ft 2 kts 101°
2026-04-23 05:14 -33.93558 151.17831 28 ft 1 kts 188°
2026-04-23 05:14 -33.93544 151.17836 28 ft 1 kts 189°
2026-04-23 05:14 -33.93541 151.17836 28 ft 0 kts 187°
2026-04-23 05:17 -33.93542 151.17836 28 ft 1 kts 187°
2026-04-23 05:17 -33.93594 151.17824 28 ft 13 kts 188°
2026-04-23 05:18 -33.93644 151.17813 28 ft 2 kts 191°
2026-04-23 05:18 -33.93701 151.17798 28 ft 13 kts 195°
2026-04-23 05:18 -33.93767 151.17776 28 ft 5 kts 194°
2026-04-23 05:18 -33.93778 151.17773 28 ft 0 kts 193°
2026-04-23 05:19 -33.93822 151.17763 28 ft 12 kts 182°
2026-04-23 05:19 -33.93935 151.17789 28 ft 22 kts 167°
2026-04-23 05:19 -33.94044 151.17818 28 ft 11 kts 167°
2026-04-23 05:19 -33.94122 151.17836 28 ft 11 kts 169°
2026-04-23 05:20 -33.94171 151.17848 28 ft 12 kts 167°
2026-04-23 05:20 -33.94230 151.17865 28 ft 12 kts 167°
2026-04-23 05:20 -33.94321 151.17888 28 ft 13 kts 169°
2026-04-23 05:20 -33.94418 151.17911 28 ft 13 kts 177°
2026-04-23 05:21 -33.94501 151.17883 28 ft 12 kts 187°
2026-04-23 05:21 -33.94593 151.17899 28 ft 13 kts 166°
2026-04-23 05:21 -33.94677 151.17921 28 ft 11 kts 168°
2026-04-23 05:21 -33.94761 151.17943 28 ft 12 kts 168°
2026-04-23 05:22 -33.94852 151.17967 28 ft 13 kts 167°
2026-04-23 05:22 -33.94949 151.17993 28 ft 14 kts 168°
2026-04-23 05:22 -33.95051 151.18019 28 ft 14 kts 167°
2026-04-23 05:22 -33.95101 151.18085 28 ft 10 kts 92°
2026-04-23 05:23 -33.95089 151.18170 28 ft 10 kts 78°
2026-04-23 05:23 -33.95073 151.18265 28 ft 12 kts 77°
2026-04-23 05:23 -33.95054 151.18367 28 ft 13 kts 78°
2026-04-23 05:23 -33.95034 151.18478 28 ft 14 kts 78°
2026-04-23 05:24 -33.95012 151.18597 28 ft 14 kts 78°
2026-04-23 05:24 -33.94996 151.18687 28 ft 9 kts 78°
2026-04-23 05:24 -33.94992 151.18706 28 ft 0 kts 78°
2026-04-23 05:25 -33.94990 151.18718 28 ft 7 kts 78°
2026-04-23 05:25 -33.94980 151.18819 28 ft 7 kts 115°
2026-04-23 05:25 -33.95015 151.18843 28 ft 0 kts 168°
2026-04-23 05:25 -33.95016 151.18843 28 ft 0 kts 168°
2026-04-23 05:26 -33.95017 151.18843 28 ft 0 kts 168°
2026-04-23 05:26 -33.95042 151.18849 28 ft 20 kts 168°
2026-04-23 05:26 -33.95493 151.18968 28 ft 108 kts 168°
2026-04-23 05:27 -33.96458 151.19214 243 ft 160 kts 167°
2026-04-23 05:27 -33.97467 151.19447 1366 ft 147 kts 169°
2026-04-23 05:27 -33.98501 151.19623 2062 ft 158 kts 167°
2026-04-23 05:27 -33.99572 151.20084 2668 ft 173 kts 148°
2026-04-23 05:28 -34.00432 151.21130 3240 ft 192 kts 118°
2026-04-23 05:28 -34.00814 151.22760 3770 ft 200 kts 105°
2026-04-23 05:28 -34.01098 151.24457 4336 ft 219 kts 108°
2026-04-23 05:28 -34.01939 151.26051 5110 ft 234 kts 137°
2026-04-23 05:29 -34.03284 151.27245 5859 ft 250 kts 144°
2026-04-23 05:29 -34.04728 151.28461 6621 ft 264 kts 142°
2026-04-23 05:29 -34.06197 151.29813 7675 ft 266 kts 140°
2026-04-23 05:29 -34.07627 151.31197 8685 ft 268 kts 140°
2026-04-23 05:30 -34.08994 151.32713 9667 ft 271 kts 130°
2026-04-23 05:30 -34.09987 151.34639 10647 ft 275 kts 113°
2026-04-23 05:30 -34.10470 151.36881 11571 ft 280 kts 99°
2026-04-23 05:30 -34.10528 151.39252 12307 ft 293 kts 86°
2026-04-23 05:31 -34.09940 151.41664 12867 ft 314 kts 66°
2026-04-23 05:31 -34.08662 151.43858 13405 ft 334 kts 53°
2026-04-23 05:31 -34.06998 151.45938 13910 ft 354 kts 43°
2026-04-23 05:31 -34.04843 151.47484 14388 ft 376 kts 24°
2026-04-23 05:32 -34.02285 151.48444 15113 ft 386 kts 18°
2026-04-23 05:32 -33.99678 151.49268 15921 ft 391 kts 17°
2026-04-23 05:32 -33.97023 151.50082 16676 ft 397 kts 17°
2026-04-23 05:32 -33.94344 151.50914 17431 ft 402 kts 18°
2026-04-23 05:33 -33.91611 151.51778 18176 ft 407 kts 18°
2026-04-23 05:33 -33.88850 151.52666 18929 ft 412 kts 18°
2026-04-23 05:33 -33.86065 151.53569 19652 ft 417 kts 18°
2026-04-23 05:33 -33.83235 151.54491 20362 ft 421 kts 18°
2026-04-23 05:34 -33.80410 151.55414 21086 ft 425 kts 18°
2026-04-23 05:34 -33.77544 151.56349 21753 ft 429 kts 18°
2026-04-23 05:34 -33.74639 151.57297 22414 ft 434 kts 18°
2026-04-23 05:34 -33.71724 151.58246 23054 ft 438 kts 18°
2026-04-23 05:35 -33.68773 151.59239 23653 ft 442 kts 19°
2026-04-23 05:35 -33.65842 151.60439 24234 ft 445 kts 24°
2026-04-23 05:35 -33.63044 151.61983 24835 ft 447 kts 30°
2026-04-23 05:35 -33.60328 151.63823 25396 ft 450 kts 34°
2026-04-23 05:36 -33.57664 151.65822 25939 ft 454 kts 35°
2026-04-23 05:36 -33.54996 151.67941 26474 ft 457 kts 37°
2026-04-23 05:36 -33.52382 151.70070 26984 ft 462 kts 36°
2026-04-23 05:36 -33.49579 151.72090 27487 ft 468 kts 30°
2026-04-23 05:37 -33.46595 151.73653 28003 ft 474 kts 22°
2026-04-23 05:37 -33.43413 151.74913 28473 ft 479 kts 18°
2026-04-23 05:37 -33.40200 151.75981 28942 ft 484 kts 16°
2026-04-23 05:37 -33.36921 151.76978 29392 ft 488 kts 15°
2026-04-23 05:38 -33.33587 151.77960 29838 ft 492 kts 15°
2026-04-23 05:38 -33.30271 151.78940 30502 ft 490 kts 15°
2026-04-23 05:38 -33.26960 151.79935 31258 ft 486 kts 15°
2026-04-23 05:38 -33.23726 151.80927 31898 ft 484 kts 15°
2026-04-23 05:39 -33.20463 151.81946 32486 ft 483 kts 15°
2026-04-23 05:39 -33.17175 151.82983 33029 ft 483 kts 15°
2026-04-23 05:39 -33.13884 151.84032 33643 ft 481 kts 15°
2026-04-23 05:39 -33.10663 151.85063 34219 ft 479 kts 15°
2026-04-23 05:40 -33.07395 151.86112 34743 ft 478 kts 15°
2026-04-23 05:40 -33.04116 151.87164 35146 ft 478 kts 15°
2026-04-23 05:40 -33.00912 151.88194 35326 ft 480 kts 15°
2026-04-23 05:41 -32.94353 151.90299 35337 ft 491 kts 15°
2026-04-23 05:41 -32.87746 151.92413 35336 ft 489 kts 15°
2026-04-23 05:42 -32.81105 151.94536 35335 ft 491 kts 15°
2026-04-23 05:42 -32.74499 151.96645 35341 ft 490 kts 15°
2026-04-23 05:43 -32.67850 151.98763 35330 ft 490 kts 15°
2026-04-23 05:43 -32.61198 152.00877 35324 ft 490 kts 15°
2026-04-23 05:44 -32.54572 152.02982 35321 ft 490 kts 15°
2026-04-23 05:44 -32.47900 152.05096 35332 ft 491 kts 15°
2026-04-23 05:45 -32.41280 152.07193 35325 ft 491 kts 15°
2026-04-23 05:45 -32.34668 152.09283 35333 ft 491 kts 15°
2026-04-23 05:46 -32.28041 152.11375 35333 ft 491 kts 14°
2026-04-23 05:46 -32.21450 152.13452 35325 ft 490 kts 14°
2026-04-23 05:47 -32.14834 152.15533 35333 ft 489 kts 14°
2026-04-23 05:47 -32.08259 152.17600 35327 ft 491 kts 14°
2026-04-23 05:48 -32.01630 152.19678 35331 ft 491 kts 14°
2026-04-23 05:48 -31.94974 152.21764 35320 ft 490 kts 14°
2026-04-23 05:49 -31.88334 152.23840 35306 ft 492 kts 14°
2026-04-23 05:49 -31.81696 152.25914 35328 ft 490 kts 14°
2026-04-23 05:50 -31.75039 152.27989 35328 ft 490 kts 14°
2026-04-23 05:50 -31.68391 152.30060 35326 ft 490 kts 14°
2026-04-23 05:51 -31.61763 152.32121 35327 ft 490 kts 14°
2026-04-23 05:51 -31.55114 152.34186 35329 ft 490 kts 14°
2026-04-23 05:52 -31.48533 152.36226 35329 ft 490 kts 14°
2026-04-23 05:52 -31.41866 152.38289 35318 ft 490 kts 14°
2026-04-23 05:53 -31.35279 152.40324 35328 ft 490 kts 14°
2026-04-23 05:53 -31.28710 152.42352 35323 ft 489 kts 14°
2026-04-23 05:54 -31.22079 152.44395 35320 ft 489 kts 14°
2026-04-23 05:54 -31.15464 152.46429 35316 ft 489 kts 13°
2026-04-23 05:55 -31.08818 152.48473 35316 ft 488 kts 13°
2026-04-23 05:55 -31.02191 152.50505 35320 ft 488 kts 13°
2026-04-23 05:56 -30.95556 152.52539 35303 ft 488 kts 13°
2026-04-23 05:56 -30.88975 152.54553 35304 ft 487 kts 13°
2026-04-23 05:57 -30.82385 152.56567 35303 ft 487 kts 13°
2026-04-23 05:57 -30.75792 152.58668 35302 ft 486 kts 15°
2026-04-23 05:58 -30.69312 152.61017 35292 ft 487 kts 16°
2026-04-23 05:58 -30.62797 152.63449 35301 ft 488 kts 17°
2026-04-23 05:59 -30.56323 152.65845 35302 ft 487 kts 15°
2026-04-23 05:59 -30.49836 152.68216 35302 ft 487 kts 15°
2026-04-23 06:00 -30.43394 152.70552 35296 ft 487 kts 15°
2026-04-23 06:00 -30.36875 152.72905 35305 ft 486 kts 15°
2026-04-23 06:01 -30.30364 152.75247 35302 ft 486 kts 15°
2026-04-23 06:01 -30.23880 152.77577 35303 ft 486 kts 15°
2026-04-23 06:02 -30.17432 152.79892 35301 ft 484 kts 15°
2026-04-23 06:02 -30.10932 152.82224 35299 ft 484 kts 15°
2026-04-23 06:03 -30.04467 152.84538 35299 ft 484 kts 15°
2026-04-23 06:03 -29.97977 152.86859 35291 ft 484 kts 15°
2026-04-23 06:04 -29.91562 152.89151 35287 ft 483 kts 15°
2026-04-23 06:04 -29.85029 152.91481 35282 ft 482 kts 15°
2026-04-23 06:05 -29.78593 152.93771 35277 ft 482 kts 15°
2026-04-23 06:05 -29.72145 152.96063 35269 ft 481 kts 14°
2026-04-23 06:06 -29.65721 152.98343 35273 ft 481 kts 14°
2026-04-23 06:06 -29.59302 153.00618 35267 ft 480 kts 14°
2026-04-23 06:07 -29.52872 153.02896 35264 ft 479 kts 15°
2026-04-23 06:07 -29.46426 153.05179 35259 ft 479 kts 14°
2026-04-23 06:08 -29.40049 153.07433 35260 ft 478 kts 14°
2026-04-23 06:08 -29.33649 153.09689 35255 ft 478 kts 14°
2026-04-23 06:09 -29.27234 153.11951 35250 ft 477 kts 14°
2026-04-23 06:09 -29.20880 153.14186 35251 ft 476 kts 14°
2026-04-23 06:10 -29.14475 153.16437 35240 ft 476 kts 14°
2026-04-23 06:10 -29.08125 153.18668 35244 ft 475 kts 14°
2026-04-23 06:11 -29.01766 153.20898 35233 ft 473 kts 14°
2026-04-23 06:11 -28.95427 153.23117 35230 ft 474 kts 14°
2026-04-23 06:12 -28.89083 153.25337 35233 ft 473 kts 14°
2026-04-23 06:12 -28.79554 153.28664 35219 ft 474 kts 14°
2026-04-23 06:13 -28.73227 153.30870 35226 ft 474 kts 14°
2026-04-23 06:13 -28.66900 153.33075 35220 ft 468 kts 14°
2026-04-23 06:14 -28.63780 153.34164 35111 ft 461 kts 14°
2026-04-23 06:14 -28.60717 153.35233 34880 ft 453 kts 13°
2026-04-23 06:14 -28.57716 153.36279 34625 ft 445 kts 14°
2026-04-23 06:14 -28.54787 153.37299 34376 ft 437 kts 13°
2026-04-23 06:15 -28.51860 153.38318 34033 ft 430 kts 13°
2026-04-23 06:15 -28.48987 153.39323 33352 ft 431 kts 14°
2026-04-23 06:15 -28.46088 153.40359 32439 ft 438 kts 14°
2026-04-23 06:15 -28.43161 153.41440 31618 ft 442 kts 16°
2026-04-23 06:16 -28.40227 153.42580 31114 ft 437 kts 17°
2026-04-23 06:16 -28.37421 153.43741 30884 ft 426 kts 18°
2026-04-23 06:16 -28.34631 153.44954 30416 ft 433 kts 18°
2026-04-23 06:16 -28.31757 153.46021 29895 ft 441 kts 14°
2026-04-23 06:17 -28.28769 153.46945 29519 ft 444 kts 13°
2026-04-23 06:17 -28.25792 153.47810 29229 ft 441 kts 13°
2026-04-23 06:17 -28.22809 153.48642 28922 ft 437 kts 10°
2026-04-23 06:17 -28.19840 153.49229 28619 ft 430 kts
2026-04-23 06:18 -28.16842 153.49429 27747 ft 433 kts 356°
2026-04-23 06:18 -28.13860 153.49059 26780 ft 436 kts 346°
2026-04-23 06:18 -28.10944 153.48175 26135 ft 431 kts 340°
2026-04-23 06:18 -28.08126 153.47081 25490 ft 428 kts 338°
2026-04-23 06:19 -28.07057 153.46632 25174 ft 428 kts 337°
2026-04-23 06:19 -28.04991 153.45740 24399 ft 431 kts 336°
2026-04-23 06:19 -28.02185 153.44501 23457 ft 435 kts 336°
2026-04-23 06:19 -27.99369 153.43260 22856 ft 431 kts 336°
2026-04-23 06:20 -27.96572 153.42044 22108 ft 424 kts 337°
2026-04-23 06:20 -27.93824 153.40863 20955 ft 426 kts 338°
2026-04-23 06:20 -27.91050 153.39685 20056 ft 420 kts 338°
2026-04-23 06:20 -27.88321 153.38535 19157 ft 414 kts 339°
2026-04-23 06:21 -27.85602 153.37582 18316 ft 410 kts 350°
2026-04-23 06:21 -27.82807 153.37550 17412 ft 403 kts 10°
2026-04-23 06:21 -27.80157 153.38435 16543 ft 395 kts 26°
2026-04-23 06:21 -27.77762 153.39928 16094 ft 375 kts 36°
2026-04-23 06:22 -27.75736 153.41617 15819 ft 355 kts 44°
2026-04-23 06:22 -27.73867 153.43443 14776 ft 363 kts 37°
2026-04-23 06:22 -27.71551 153.44559 13924 ft 365 kts 11°
2026-04-23 06:22 -27.69031 153.44394 13464 ft 361 kts 344°
2026-04-23 06:23 -27.66821 153.43074 13062 ft 354 kts 321°
2026-04-23 06:23 -27.65064 153.41147 12576 ft 350 kts 314°
2026-04-23 06:23 -27.63170 153.39449 12221 ft 343 kts 333°
2026-04-23 06:23 -27.60923 153.38786 12196 ft 321 kts
2026-04-23 06:24 -27.58747 153.38995 12204 ft 307 kts 12°
2026-04-23 06:24 -27.56621 153.39424 12053 ft 318 kts 12°
2026-04-23 06:24 -27.54343 153.39792 11576 ft 346 kts
2026-04-23 06:24 -27.51909 153.40031 11029 ft 354 kts
2026-04-23 06:25 -27.49453 153.40170 10812 ft 346 kts
2026-04-23 06:25 -27.47073 153.40263 10697 ft 334 kts
2026-04-23 06:25 -27.44771 153.40346 10572 ft 320 kts
2026-04-23 06:25 -27.42610 153.40428 10462 ft 304 kts
2026-04-23 06:26 -27.40514 153.40506 10019 ft 299 kts
2026-04-23 06:26 -27.38431 153.40575 9495 ft 297 kts
2026-04-23 06:26 -27.36391 153.40643 8993 ft 294 kts
2026-04-23 06:26 -27.34397 153.40714 8956 ft 279 kts
2026-04-23 06:27 -27.32464 153.40768 8787 ft 276 kts
2026-04-23 06:27 -27.30570 153.40849 8665 ft 272 kts
2026-04-23 06:27 -27.28621 153.40944 8126 ft 286 kts
2026-04-23 06:27 -27.26605 153.41042 7707 ft 292 kts
2026-04-23 06:28 -27.24587 153.41157 7417 ft 290 kts
2026-04-23 06:28 -27.22577 153.41283 7043 ft 291 kts
2026-04-23 06:28 -27.20556 153.41374 6669 ft 291 kts 360°
2026-04-23 06:28 -27.18621 153.40990 6575 ft 280 kts 341°
2026-04-23 06:29 -27.16906 153.39885 5829 ft 294 kts 320°
2026-04-23 06:29 -27.15464 153.38280 5454 ft 287 kts 310°
2026-04-23 06:29 -27.14214 153.36601 5334 ft 268 kts 302°
2026-04-23 06:29 -27.13419 153.34773 5235 ft 258 kts 281°
2026-04-23 06:30 -27.13277 153.32842 5198 ft 243 kts 259°
2026-04-23 06:30 -27.13723 153.31076 5140 ft 231 kts 242°
2026-04-23 06:30 -27.14411 153.29463 5050 ft 225 kts 238°
2026-04-23 06:30 -27.15125 153.27898 4956 ft 222 kts 238°
2026-04-23 06:31 -27.15855 153.26392 4863 ft 213 kts 231°
2026-04-23 06:31 -27.16806 153.25232 4796 ft 192 kts 211°
2026-04-23 06:31 -27.17953 153.24499 4391 ft 192 kts 202°
2026-04-23 06:31 -27.19184 153.23822 3983 ft 194 kts 201°
2026-04-23 06:32 -27.20364 153.23171 3733 ft 189 kts 202°
2026-04-23 06:32 -27.21555 153.22484 3455 ft 187 kts 202°
2026-04-23 06:32 -27.22707 153.21806 3217 ft 184 kts 203°
2026-04-23 06:32 -27.23806 153.21144 3007 ft 177 kts 202°
2026-04-23 06:33 -27.24861 153.20522 2728 ft 164 kts 201°
2026-04-23 06:33 -27.25860 153.19955 2483 ft 152 kts 199°
2026-04-23 06:33 -27.26734 153.19457 2409 ft 128 kts 200°
2026-04-23 06:33 -27.27507 153.18979 2051 ft 130 kts 201°
2026-04-23 06:34 -27.28279 153.18507 1932 ft 117 kts 197°
2026-04-23 06:34 -27.29019 153.18094 1849 ft 123 kts 197°
2026-04-23 06:34 -27.29835 153.17662 1687 ft 134 kts 196°
2026-04-23 06:34 -27.30722 153.17236 1517 ft 137 kts 196°
2026-04-23 06:35 -27.31600 153.16792 1263 ft 136 kts 197°
2026-04-23 06:35 -27.32439 153.16347 1092 ft 129 kts 201°
2026-04-23 06:35 -27.33214 153.15854 920 ft 126 kts 204°
2026-04-23 06:35 -27.33977 153.15367 776 ft 126 kts 202°
2026-04-23 06:36 -27.34760 153.14897 628 ft 128 kts 201°
2026-04-23 06:36 -27.35570 153.14455 464 ft 131 kts 200°
2026-04-23 06:36 -27.36409 153.14000 287 ft 133 kts 200°
2026-04-23 06:36 -27.37241 153.13553 108 ft 132 kts 201°
2026-04-23 06:37 -27.38042 153.13098 21 ft 115 kts 205°
2026-04-23 06:37 -27.38595 153.12787 21 ft 67 kts 206°
2026-04-23 06:37 -27.38872 153.12607 21 ft 28 kts 217°
2026-04-23 06:37 -27.38971 153.12503 20 ft 19 kts 230°
2026-04-23 06:38 -27.39051 153.12375 20 ft 17 kts 237°
2026-04-23 06:38 -27.39019 153.12311 21 ft 20 kts 19°
2026-04-23 06:38 -27.38876 153.12396 20 ft 23 kts 26°
2026-04-23 06:38 -27.38764 153.12408 21 ft 13 kts 311°
2026-04-23 06:39 -27.38705 153.12363 21 ft 9 kts 16°
2026-04-23 06:39 -27.38642 153.12392 20 ft 10 kts 25°
2026-04-23 06:39 -27.38564 153.12393 21 ft 13 kts 322°
2026-04-23 06:39 -27.38511 153.12314 20 ft 11 kts 297°
2026-04-23 06:40 -27.38488 153.12227 20 ft 9 kts 255°
2026-04-23 06:40 -27.38517 153.12198 20 ft 6 kts 223°
2026-04-23 06:40 -27.38539 153.12166 21 ft 3 kts 251°
2026-04-23 06:40 -27.38536 153.12138 21 ft 3 kts 287°
2026-04-23 06:41 -27.38532 153.12125 21 ft 0 kts 288°
2026-04-23 06:41 -27.38532 153.12123 21 ft 0 kts 286°